Regional Weather Roundup
Issued by NWS Little Rock, AR

Home | Current Version | Previous Version | Graphics & Text | Print | Product List | Glossary On
Versions: 1 2 3 4 5 6 7 8 9 10 11 12 13 14 15 16 17 18 19 20 21 22 23 24 25 26 27 28 29 30 31 32 33 34 35 36 37 38 39 40 41 42 43 44 45 46 47 48 49 50
000
ASUS44 KLZK 041705
RWRLZK

WEATHER ROUNDUP FOR ARKANSAS
NATIONAL WEATHER SERVICE LITTLE ROCK AR
1200 PM CDT TUE AUG 04 2015

NOTE: "FAIR" INDICATES FEW OR NO CLOUDS BELOW 12,000 FEET WITH NO
SIGNIFICANT WEATHER AND/OR OBSTRUCTIONS TO VISIBILITY.

ARZ001-003-010-029-041800-
NORTHWEST ARKANSAS

CITY           SKY/WX    TMP DP  RH WIND       PRES   REMARKS
FAYETTEVILLE   PTSUNNY   85  70  60 S9        30.03S HX  89
FORT SMITH     MOSUNNY   90  68  48 E6        29.98S HX  94
HARRISON       PTSUNNY   88  69  53 S9        30.04S HX  92
BENTONVILLE    CLOUDY    84  66  54 SW6       30.04S HX  86
ROGERS         CLOUDY    87  66  49 S12       30.04S HX  89
SILOAM SPGS    CLOUDY    82  64  54 W8        30.03R
HIGHFILL       CLOUDY    85  71  63 SW6       30.03S HX  90
SPRINGDALE     CLOUDY    86  68  54 S9        30.05S HX  89
$$

ARZ004-005-016-041800-
NORTH CENTRAL ARKANSAS

CITY           SKY/WX    TMP DP  RH WIND       PRES   REMARKS
BATESVILLE     MOSUNNY   91  70  49 SE8       30.00S HX  97
FLIPPIN        PTSUNNY   88  70  55 S5        29.99F HX  92
MTN HOME       MOSUNNY   87  72  60 VRB5      30.01F HX  93
$$

ARZ040-041-041800-
WEST CENTRAL ARKANSAS

CITY           SKY/WX    TMP DP  RH WIND       PRES   REMARKS
MENA           PTSUNNY   95  64  36 S6        30.02F HX  97
MOUNT IDA      MOSUNNY   92  65  40 S6        30.00S HX  94
$$

ARZ009-017-025-026-028-041800-
NORTHEAST ARKANSAS

CITY           SKY/WX    TMP DP  RH WIND       PRES   REMARKS
JONESBORO      MOSUNNY   90  70  51 SW14      29.99S HX  95
NEWPORT        SUNNY     95  68  41 SW12      30.00F HX  99
WALNUT RIDGE   MOSUNNY   93  70  46 W13       29.98S HX  99
BLYTHEVILLE    MOSUNNY   92  73  53 SW7       30.00S HX 100
$$

ARZ022-023-033-042-044-041800-
CENTRAL ARKANSAS

CITY           SKY/WX    TMP DP  RH WIND       PRES   REMARKS
LITTLE ROCK    PTSUNNY   94  68  42 S7        30.00F HX  98
N LITTLE ROCK  PTSUNNY   93  67  41 W5        30.00F HX  96
JACKSONVILLE   SUNNY     95  67  39 S6        29.99F HX  99
SEARCY         SUNNY     93  73  52 S9        30.01F HX 102
HOT SPRINGS    MOSUNNY   94  65  38 VRB7      30.00F HX  96
RUSSELLVILLE   MOSUNNY   90  68  48 CALM      29.99F HX  94
$$

ARZ036-041800-
EAST ARKANSAS

CITY           SKY/WX    TMP DP  RH WIND       PRES   REMARKS
WEST MEMPHIS   SUNNY     92  71  50 SW5       30.00S HX  98
$$

ARZ050-053-066-070-073-041800-
SOUTHWEST ARKANSAS

CITY           SKY/WX    TMP DP  RH WIND       PRES   REMARKS
ARKADELPHIA    FAIR      99  70  38 S8        29.99F HX 106
CAMDEN         SUNNY     95  66  38 W3        29.98F HX  98
TEXARKANA      PTSUNNY   94  68  42 SW9       29.99F HX  98
EL DORADO      SUNNY     95  66  38 SE6       30.00S HX  98
DE QUEEN       PTSUNNY   90  72  55 VRB3      29.97F HX  97
$$

ARZ056-057-069-041800-
SOUTHEAST ARKANSAS

CITY           SKY/WX    TMP DP  RH WIND       PRES   REMARKS
PINE BLUFF     SUNNY     94  66  39 S6        30.00F HX  97
STUTTGART      SUNNY     93  68  43 S7        30.00F HX  97
MONTICELLO     SUNNY     96  65  35 CALM      29.99F HX  98

$$




USA.gov is the U.S. government's official web portal to all federal, state and local government web resources and services.